Flag for Brazil Weather past 2 weeks in Passo Fundo, Rio Grande do Sul, Brazil

66 °F

Light rain. Cloudy.

Feels Like: 66 °F
Forecast: 58 / 66 °F
Wind: 5 mph from South

Location: Porto Alegre Aero-Porto

Current Time: Oct 9, 2015 at 5:25:44 PM

Latest Report: Oct 9, 2015 at 5:00 PM

Visibility: 4 mi

Pressure: 29.89 "Hg (27.60 "Hg at 680m altitude)

Humidity: 94%

Dew point: 64 °F

Location of Passo FundoLocation

Historic Weather in Passo Fundo — Graph


Passo Fundo temperature yesterday

Maximum temperature yesterday: 68 °F (at 2:00 AM)
Minimum temperature yesterday: 32 °F (at 4:00 AM)
Average temperature yesterday: 64 °F

Past Weeks' High & Low Weather Summary

High84 °F (Oct 6, 3:00 PM)100% (Sep 24, 8:00 PM)30.18 "Hg (Sep 24, 8:00 PM)
Low32 °F (Oct 8, 4:00 AM)29% (Sep 28, 4:00 PM)29.59 "Hg (Sep 24, 5:00 PM)
Average64 °F79%29.94 "Hg
* Reported Sep 24 4:00 PM — Oct 9 4:00 PM, Passo Fundo, Weather by CustomWeather, © 2015

Note: Actual official high and low records may vary slightly from our data, if they occured in-between our weather recording intervals... More about our weather records


Passo Fundo weather history for previous 24 hours

Time TempWeatherWind HumidityBarometerVisibility
4:00 PM
Fri, Oct 9
66 °FLight rain. Cloudy.5 mph94%29.86 "Hg4 mi
3:00 PM66 °FLight rain. Fog.8 mph94%N/A3 mi
2:00 PM66 °FLight rain. Cloudy.3 mph30%29.95 "Hg4 mi
1:00 PM66 °FLight rain. Cloudy.7 mph100%29.92 "Hg4 mi
12:00 PM66 °FLight rain. Low clouds.No wind94%29.95 "Hg4 mi
11:00 AM66 °FLight rain. Mostly cloudy.2 mph94%29.95 "Hg4 mi
10:00 AM66 °FLight rain. Mostly cloudy.2 mph94%29.98 "Hg4 mi
9:00 AM64 °FLight rain. Low clouds.1 mph100%29.95 "Hg4 mi
8:00 AM64 °FLight rain. Fog.10 mph94%29.95 "Hg3 mi
7:00 AM64 °FMostly cloudy.6 mph94%29.92 "HgN/A
6:00 AM64 °FMostly cloudy.3 mph94%29.89 "HgN/A
5:00 AM64 °FCloudy.9 mph94%29.86 "HgN/A
4:00 AM66 °FOvercast.3 mph94%29.86 "HgN/A
3:00 AM66 °FOvercast.5 mph94%29.83 "HgN/A
2:00 AM68 °FOvercast.3 mph88%29.89 "HgN/A
1:00 AM66 °FOvercast.6 mph94%29.92 "HgN/A
12:00 AM68 °FOvercast.7 mph88%29.89 "HgN/A
11:00 PM
Thu, Oct 8
66 °FOvercast.5 mph94%29.86 "HgN/A
10:00 PM68 °FOvercast.5 mph88%29.83 "HgN/A
9:00 PM68 °FMostly cloudy.9 mph88%29.86 "HgN/A
8:00 PM68 °FOvercast.8 mph88%29.80 "HgN/A
7:00 PM68 °FPartly cloudy.8 mph88%29.83 "Hg5 mi
6:00 PM68 °FPartly cloudy.9 mph88%29.77 "Hg4 mi
5:00 PM68 °FThunderstorms. Cloudy.10 mph94%29.77 "Hg3 mi
Weather by CustomWeather, © 2015

See weather overviewHow to use our weather pages